Weather History for Port Isabel, TX

Change the Weather History Date:

Friday, October 5, 2012

  Actual Average Record
Temperature  
Mean Temperature 80 °F -  
Max Temperature 88 °F - - ()
Min Temperature 73 °F - - ()
Cooling Degree Days 16    
Growing Degree Days 30 (Base 50)    
Moisture  
Dew Point 67 °F    
Average Humidity 67    
Maximum Humidity 87    
Minimum Humidity 46    
Precipitation  
Precipitation 0.00 in - - ()
Sea Level Pressure  
Sea Level Pressure 30.03 in    
Wind  
Wind Speed 7 mph (SE)    
Max Wind Speed 14 mph    
Max Gust Speed -    
Visibility 10 miles    
Events      
T = Trace of Precipitation, MM = Missing Value Source: NWS Daily Summary

Daily Weather History Graph

Daily Weather History Graph

Search for Another Location

Airport:

Trip Planner

Search our weather history database for the weather conditions in past years. The results will help you decide how hot, cold, wet, or windy it might be!

Date:

Astronomy

Oct. 05, 2012 Rise Set
Actual Time 7:23 AM CDT 7:10 PM CDT
Civil Twilight 7:00 AM CDT 7:34 PM CDT
Nautical Twilight 6:33 AM CDT 8:00 PM CDT
Astronomical Twilight 6:07 AM CDT 8:27 PM CDT
Moon 11:01 PM CDT (10/5) 12:06 PM CDT (10/5)
Length of Visible Light 12h 33m
Length of Day
11h 47m
Waning Gibbous, 74% of the Moon is Illuminated
Oct 5
Waning Gibbous
Oct 8
Last Quarter
Oct 15
New
Oct 21
First Quarter
Oct 29
Full

Hourly Weather History & Observations

Time (CDT) Temp. Heat Index Dew Point Humidity Pressure Visibility Wind Dir Wind Speed Gust Speed Precip Events Conditions
12:53 AM 75.0 °F - 70.0 °F 84% 30.08 in 10.0 mi SSE 5.8 mph - N/A   Clear
1:53 AM 75.9 °F - 70.0 °F 82% 30.07 in 10.0 mi SSE 6.9 mph - N/A   Clear
3:53 AM 73.9 °F - 69.1 °F 85% 30.04 in 10.0 mi South 5.8 mph - N/A   Clear
4:53 AM 73.0 °F - 69.1 °F 87% 30.04 in 10.0 mi Calm Calm - N/A   Clear
5:53 AM 73.9 °F - 69.1 °F 85% 30.05 in 10.0 mi Calm Calm - N/A   Clear
6:53 AM 73.0 °F - 68.0 °F 84% 30.06 in 10.0 mi SSE 4.6 mph - N/A   Clear
7:53 AM 73.0 °F - 69.1 °F 87% 30.07 in 10.0 mi South 4.6 mph - N/A   Clear
8:53 AM 80.1 °F 83.2 °F 70.0 °F 71% 30.08 in 10.0 mi South 5.8 mph - N/A   Clear
9:53 AM 84.0 °F 87.0 °F 68.0 °F 58% 30.09 in 10.0 mi SSE 11.5 mph - N/A   Clear
10:53 AM 84.9 °F 88.2 °F 68.0 °F 57% 30.09 in 10.0 mi South 9.2 mph - N/A   Mostly Cloudy
12:53 PM 87.1 °F 89.9 °F 66.9 °F 51% 30.06 in 10.0 mi ESE 13.8 mph - N/A   Clear
1:53 PM 88.0 °F 90.3 °F 66.0 °F 48% 30.04 in 10.0 mi East 12.7 mph - N/A   Clear
2:53 PM 88.0 °F 89.6 °F 64.9 °F 46% 30.01 in 10.0 mi ESE 10.4 mph - N/A   Clear
3:53 PM 87.1 °F 89.2 °F 66.0 °F 49% 29.99 in 10.0 mi ESE 12.7 mph - N/A   Clear
4:53 PM 84.9 °F 87.1 °F 66.0 °F 53% 29.99 in 10.0 mi ESE 12.7 mph - N/A   Clear
5:53 PM 84.0 °F 86.5 °F 66.9 °F 56% 29.98 in 10.0 mi ESE 12.7 mph - N/A   Clear
6:53 PM 81.0 °F 83.3 °F 66.9 °F 62% 29.98 in 10.0 mi ESE 8.1 mph - N/A   Clear
7:53 PM 79.0 °F - 64.9 °F 62% 29.99 in 10.0 mi ESE 6.9 mph - N/A   Clear
8:53 PM 79.0 °F - 64.9 °F 62% 30.00 in 10.0 mi East 9.2 mph - N/A   Clear
9:53 PM 78.1 °F - 66.0 °F 66% 30.00 in 10.0 mi ESE 9.2 mph - N/A   Clear
10:53 PM 77.0 °F - 66.9 °F 71% 30.00 in 10.0 mi SE 8.1 mph - N/A   Clear
11:53 PM 75.9 °F - 66.9 °F 74% 29.99 in 10.0 mi SSE 6.9 mph - N/A   Clear